Regional Weather Roundup
Issued by NWS

Home | Current Version | Previous Version | Graphics & Text | Print | Product List | Glossary On
Versions: 1 2 3 4 5 6 7 8 9 10 11 12 13 14 15 16 17 18 19 20 21 22 23 24 25 26 27 28
000
ASUS45 KTFX 290610
RWRMT
MONTANA REGIONAL WEATHER ROUNDUP
NATIONAL WEATHER SERVICE GREAT FALLS MT
1200 AM MDT THU SEP 29 2016

NOTE: "FAIR" INDICATES FEW OR NO CLOUDS BELOW 12000 FEET WITH NO
SIGNIFICANT WEATHER AND/OR OBSTRUCTIONS TO VISIBILITY.

MTZ001>007-043-290700-
WEST OF THE DIVIDE

CITY           SKY/WX    TMP DP  RH WIND       PRES   REMARKS
KALISPELL      CLEAR     59  43  55 N8        30.02S
MISSOULA       CLEAR     59  45  59 CALM      30.03S
BUTTE          CLEAR     53  40  61 S6        30.20S
MULLAN PASS    CLEAR     60  41  49 SE5       30.14S
ANACONDA         N/A     54  36  50 S7        30.17R
DEER LODGE       N/A     48  39  71 CALM      30.17S
EUREKA           N/A     48  41  76 CALM        N/A
HAMILTON         N/A     57  45  62 S7        30.05S
LIBBY            N/A     52  46  82 CALM      30.01S
PLAINS           N/A     54  45  71 CALM      30.01R
RONAN            N/A     47  42  82 CALM      30.07R
$$

MTZ008-052>055-290700-
SOUTHWEST MONTANA

CITY           SKY/WX    TMP DP  RH WIND       PRES   REMARKS
BOZEMAN        CLEAR     51  45  79 NE3       30.17S
DILLON         CLEAR     52  41  66 CALM      30.18R
W YELLOWSTONE    N/A     37  36  93 SW8       30.32S WCI  31
ENNIS          CLEAR     46  41  81 CALM      30.25S
$$

MTZ009-010-012-014-046-048-049-054-290700-
EAST SLOPES AND CENTRAL MONTANA

CITY           SKY/WX    TMP DP  RH WIND       PRES   REMARKS
CUT BANK       CLEAR     50  43  77 S3        30.15F
GREAT FALLS    CLEAR     46  43  89 SW8       30.15F
MALMSTROM AFB  CLEAR     48  46  91 SW7       30.14F
HELENA         CLEAR     57  44  62 W7        30.15F
AUGUSTA          N/A     45  41  86 NW5       30.17
BOWMANS CRNR     N/A     47  42  82 W7        30.15
CHOTEAU          N/A     50  45  81 SW6       30.17F
CONRAD           N/A     41  41 100 NE2       30.15F
FAIRFIELD        N/A     48  44  84 NW2       30.14
POWER            N/A     47  43  88 N3        30.14
RAYNESFORD       N/A     47  45  94 W1        30.16
$$

MTZ011-013-016-021-045-047-050-051-290700-
NORTH CENTRAL MONTANA

CITY           SKY/WX    TMP DP  RH WIND       PRES   REMARKS
HAVRE          CLEAR     52  48  86 E8        30.12F
LEWISTOWN      CLEAR     50  43  77 SE5       30.15F
N BAR RANCH      N/A     54  46  76 VRB3      30.21F
CHINOOK          N/A     54  48  82 E5        30.13F
DENTON           N/A     53  47  81 W3        30.10
GEYSER           N/A     45  41  86 NW5       30.17
GRASS RANGE      N/A     51  47  84 W7        30.13
JUDITH GAP       N/A     50  45  83 SW17      30.20
ROY              N/A     62  51  68 MISG      30.12
STANFORD         N/A     51  46  84 W2        30.15
WINIFRED         N/A     52  47  84 MISG      30.13
$$

MTZ017>020-022>027-061-062-290700-
NORTHEAST MONTANA

CITY           SKY/WX    TMP DP  RH WIND       PRES   REMARKS
GLASGOW        CLEAR     57  51  80 E10       30.15F
JORDAN           N/A     60  54  80 NE6       30.15F
SIDNEY         CLEAR     57  40  52 S7        30.26S
WOLF POINT     CLEAR     58  52  80 E10       30.19S
PLENTYWOOD       N/A     55  39  54 E10       30.25S
POPLAR           N/A     61  48  63 E9        30.20S
SCOBEY           N/A     59  45  59 SE13      30.18F
$$

MTZ028>42-056>058-290700-
SOUTHCENTRAL AND SOUTHEAST MONTANA

CITY           SKY/WX    TMP DP  RH WIND       PRES   REMARKS
BAKER          CLEAR     54  43  66 SE16      30.29S
BILLINGS       CLEAR     58  51  78 SW6       30.16S
LIVINGSTON     CLEAR     46  44  93 SW3       30.21F
MILES CITY     CLEAR     65  48  54 SE13G25   30.18F
BIG TIMBER     CLEAR     55  48  76 CALM      30.23F
EKALAKA          N/A     57  38  49 SE12      30.24S
FORSYTH          N/A     59  55  88 CALM      30.16S
HARLOWTON        N/A     51  46  83 W15       30.20
LAUREL           N/A     53  46  77 CALM      30.14S
ROUNDUP          N/A     54  46  74 SW6       30.06F
$$

REGIONAL REPORTS...DAKOTAS

CITY           SKY/WX    TMP DP  RH WIND       PRES   REMARKS
WILLISTON      CLEAR     59  38  45 SE5       30.28S
MINOT          CLEAR     45  44  97 SE6       30.35S
DICKINSON      CLEAR     47  37  68 SE12      30.31F
BEACH            N/A     54  36  50 SE15      30.32S
CROSBY           N/A     55  41  58 S13       30.30S
WATFORD CITY     N/A     54  37  54 SE10      30.30R
BISMARCK       CLEAR     43  42  97 E7        30.38S
GRAND FORKS    CLEAR     43  41  93 CALM      30.42S
FARGO          CLEAR     46  43  89 E3        30.42R
BUFFALO SD       N/A     54  33  45 SE13      30.26R
RAPID CITY     CLEAR     49  38  65 S6        30.35F
$$

REGIONAL REPORTS...WYOMING/IDAHO/WASHINGTON

CITY           SKY/WX    TMP DP  RH WIND       PRES   REMARKS
GILLETTE       CLEAR     58  46  64 S13       30.29S
SHERIDAN       CLEAR     68  37  32 SE10      30.19F
BUFFALO WY     CLEAR     60  40  47 S13       30.30F
CODY           CLEAR     54  41  62 S6        30.25S
YELLOWSTONE LA   N/A     37  33  85 CALM      30.42S
IDAHO FALLS    CLEAR     53  46  77 VRB3      30.18R
SALMON         CLEAR     50  39  66 CALM      30.10R
BOISE          CLEAR     73  32  22 SE7       29.93S
SPOKANE        PTCLDY    58  38  47 W5        29.96S
$$

REGIONAL REPORTS...ALBERTA

CITY           SKY/WX    TMP DP  RH WIND       PRES   REMARKS
EDMONTON       CLEAR     45  32  61 S8        30.22S
CALGARY        MOCLDY    45  37  76 S9        30.18F
LETHBRIDGE     MOCLDY    46  39  76 N6        30.15F
MEDICINE HAT   PTCLDY    46  39  76 E14       30.15F
WATERTON GATE    N/A     37  36  93 SW1         N/A
CARDSTON         N/A     45  39  81 W1          N/A
MILK RIVER       N/A     39  37  93 NW5         N/A
$$

REGIONAL REPORTS...SASKATCHEWAN

CITY           SKY/WX    TMP DP  RH WIND       PRES   REMARKS
SWIFT CURRENT  MOCLDY    46  41  81 E9        30.19F
REGINA         PTCLDY    55  39  54 SE18G26   30.23F
SASKATOON      LGT RAIN  48  45  87 NE8       30.29F
CYPRESS HILLS    N/A     48  43  81 SE5         N/A
VAL MARIE        N/A     46  45  93 NE5         N/A
ROCKGLEN         N/A     54  50  87 SE14        N/A
ASSINIBOIA       N/A     48  36  61 SE7         N/A
$$




USA.gov is the U.S. government's official web portal to all federal, state and local government web resources and services.